Stations météo

réclame
Mon MeteoGroup
Deelen, Pays-Bas (6275): Température de l'air & dewpoint: 09.08.2018 01:00:00 - 15.08.2018 01:00:00 (CEST)Deelen, Pays-Bas (6275): Température de l'air 5cm: 09.08.2018 01:00:00 - 15.08.2018 01:00:00 (CEST)Deelen, Pays-Bas (6275): Vitesse du vent & gusts: 09.08.2018 01:00:00 - 15.08.2018 01:00:00 (CEST)Deelen, Pays-Bas (6275): Direction du vent: 09.08.2018 01:00:00 - 15.08.2018 01:00:00 (CEST)Deelen, Pays-Bas (6275): reduced air pressure: 09.08.2018 01:00:00 - 15.08.2018 01:00:00 (CEST)Deelen, Pays-Bas (6275): visibility: 09.08.2018 01:00:00 - 15.08.2018 01:00:00 (CEST)Deelen, Pays-Bas (6275): Quantités de précipitations: 09.08.2018 01:00:00 - 15.08.2018 01:00:00 (CEST)
Date & Time tt [°C] td [°C] tt 5cm [°C] ff [km/h] ff [knt] fx [km/h] fx [knt] dd ppp [hPa] vv [km] rr [mm]
15.08.2018 01:00:00 17,1 14,8 16,8 8 4 14 8 WSW 1017,8 10 0,0
15.08.2018 00:00:00 17,4 15,8 17,2 8 4 11 6 WSW 1017,7 10 0,0
14.08.2018 23:00:00 18,0 16,4 17,8 5 3 11 6 W 1017,3 10 0,0
14.08.2018 22:00:00 17,7 16,0 17,1 5 3 7 4 WSW 1017,2 10 0,0
14.08.2018 21:00:00 18,4 15,6 18,2 5 3 22 12 W 1016,9 10 0,0
14.08.2018 20:00:00 19,8 14,5 19,7 13 7 29 16 W 1016,5 10 0,0
14.08.2018 19:00:00 20,6 14,3 20,8 13 7 29 16 WNW 1016,1 10 0,0
14.08.2018 18:00:00 21,6 14,2 22,2 15 8 32 18 WNW 1015,7 10 0,0
14.08.2018 17:00:00 22,7 13,0 23,7 21 11 32 18 W 1015,5 10 0,0
14.08.2018 16:00:00 23,6 12,3 23,9 21 11 40 21 WNW 1015,1 10 0,0
14.08.2018 15:00:00 22,4 12,4 24,2 21 11 40 21 W 1014,8 10 0,0
14.08.2018 14:00:00 23,0 11,9 25,1 18 10 32 18 W 1014,2 10 0,0
14.08.2018 13:00:00 21,8 12,0 22,2 24 13 36 19 W 1013,7 10 0,0
14.08.2018 12:00:00 21,0 12,9 22,0 22 12 36 19 W 1013,4 10 0,0
14.08.2018 11:00:00 20,1 14,4 21,3 15 8 32 18 WNW 1012,8 10 0,0
14.08.2018 10:00:00 19,0 15,8 18,7 16 9 32 18 W 1012,3 10 0,0
14.08.2018 09:00:00 17,8 16,1 17,7 15 8 25 14 W 1011,6 10 0,0
14.08.2018 08:00:00 16,9 16,1 16,8 13 7 25 14 W 1010,8 10 0,0
14.08.2018 07:00:00 16,8 16,1 16,6 9 5 25 14 W 1010,1 10 0,3
14.08.2018 06:00:00 17,2 16,6 16,9 13 7 25 14 W 1009,3 6 0,5
14.08.2018 05:00:00 17,2 16,7 16,9 13 7 22 12 WSW 1009,0 4,7 0,1
14.08.2018 04:00:00 16,8 16,6 16,6 11 6 14 8 SW 1008,8 4,1 0,0
14.08.2018 03:00:00 16,7 16,5 16,4 11 6 14 8 SSW 1008,6 3,6 0,0
14.08.2018 02:00:00 16,7 16,3 16,3 11 6 14 8 SW 1008,6 4,7 0,0
14.08.2018 01:00:00 16,5 16,1 15,9 9 5 14 8 SSW 1008,3 5 0,0
14.08.2018 00:00:00 15,6 15,6 14,6 9 5 11 6 SSW 1008,0 3,1 0,0
13.08.2018 23:00:00 16,1 16,0 15,4 8 4 14 8 SW 1007,6 4,4 0,0
13.08.2018 22:00:00 16,9 16,6 16,5 9 5 14 8 SW 1007,3 9 0,0
13.08.2018 21:00:00 17,0 16,6 16,9 9 5 18 10 SSW 1006,9 8 0,2
13.08.2018 20:00:00 17,6 17,1 17,4 8 4 18 10 WSW 1006,6 10 0,2
13.08.2018 19:00:00 17,4 17,2 17,4 9 5 14 8 SSW 1006,2 6 2,0
13.08.2018 18:00:00 17,8 16,4 18,4 5 3 11 6 WSW 1006,0 10 0,0
13.08.2018 17:00:00 17,4 15,4 17,8 11 6 22 12 NW 1005,9 10 0,4
13.08.2018 16:00:00 17,9 17,0 17,8 9 5 25 14 SSW 1005,7 10 6,0
13.08.2018 15:00:00 19,4 18,8 19,2 8 4 18 10 S 1005,3 8 0,1
13.08.2018 14:00:00 19,0 17,8 19,2 16 9 25 14 S 1005,3 10 0,0
13.08.2018 13:00:00 18,7 18,0 18,7 13 7 32 18 S 1005,5 10 4,8
13.08.2018 12:00:00 21,1 16,5 22,1 18 10 29 16 S 1005,6 10 0,0
13.08.2018 11:00:00 21,1 15,6 22,1 26 14 36 19 SSW 1005,6 10 0,0
13.08.2018 10:00:00 21,4 15,4 22,1 16 9 29 16 S 1005,3 10 0,0
13.08.2018 09:00:00 18,3 14,9 17,3 13 7 18 10 S 1005,4 10 0,0
13.08.2018 08:00:00 17,5 13,9 17,1 8 4 18 10 SSE 1005,7 10 0,0
13.08.2018 07:00:00 18,5 12,3 18,2 15 8 25 14 SSE 1005,6 10 0,0
13.08.2018 06:00:00 19,8 11,1 18,7 4 2 11 6 - 1005,4 10 0,0
13.08.2018 05:00:00 20,1 10,6 18,7 5 3 7 4 ESE 1005,8 10 0,0
13.08.2018 04:00:00 20,3 11,5 19,2 2 1 7 4 - 1006,3 10 0,0
13.08.2018 03:00:00 20,2 12,2 19,1 5 3 7 4 ESE 1006,9 10 0,0
13.08.2018 02:00:00 20,9 12,0 20,0 4 2 7 4 - 1007,4 10 0,0
13.08.2018 01:00:00 21,2 11,7 20,2 8 4 11 6 ESE 1008,1 10 0,0
13.08.2018 00:00:00 20,8 12,4 19,7 5 3 7 4 ESE 1008,5 10 0,0
12.08.2018 23:00:00 21,2 12,4 20,0 5 3 11 6 ESE 1009,1 10 0,0
12.08.2018 22:00:00 21,1 12,6 19,0 5 3 7 4 ESE 1009,6 10 0,0
12.08.2018 21:00:00 21,9 13,2 20,8 5 3 11 6 SE 1009,8 10 0,0
12.08.2018 20:00:00 24,5 10,8 23,9 8 4 18 10 S 1010,0 10 0,0
12.08.2018 19:00:00 25,6 10,8 26,3 13 7 25 14 SSW 1010,6 10 0,0
12.08.2018 18:00:00 26,4 10,6 27,9 18 10 32 18 S 1011,2 10 0,0
12.08.2018 17:00:00 26,3 10,4 29,1 16 9 32 18 S 1011,8 10 0,0
12.08.2018 16:00:00 26,5 11,1 29,6 16 9 32 18 S 1012,5 10 0,0
12.08.2018 15:00:00 26,0 12,1 28,8 18 10 32 18 S 1013,5 10 0,0
12.08.2018 14:00:00 24,3 11,3 26,5 18 10 40 21 S 1014,3 10 0,0
12.08.2018 13:00:00 24,1 11,7 25,9 22 12 32 18 S 1014,9 10 0,0
12.08.2018 12:00:00 21,9 11,4 23,9 21 11 32 18 S 1015,5 10 0,0
12.08.2018 11:00:00 20,4 10,8 21,8 18 10 29 16 S 1016,0 10 0,0
12.08.2018 10:00:00 19,1 9,7 20,9 13 7 22 12 S 1016,4 10 0,0
12.08.2018 09:00:00 17,0 10,5 17,3 9 5 14 8 S 1016,8 10 0,0
12.08.2018 08:00:00 15,5 10,0 15,2 5 3 11 6 SSE 1017,0 10 0,0
12.08.2018 07:00:00 14,6 9,7 14,2 8 4 14 8 SSE 1017,3 10 0,0
12.08.2018 06:00:00 14,3 9,3 13,5 11 6 18 10 SSE 1017,4 10 0,0
12.08.2018 05:00:00 13,0 9,3 12,1 8 4 14 8 SSE 1018,1 10 0,0
12.08.2018 04:00:00 11,3 9,0 9,2 4 2 4 2 - 1018,9 10 0,0
12.08.2018 03:00:00 9,2 7,9 7,9 5 3 7 4 E 1019,4 10 0,0
12.08.2018 02:00:00 10,1 8,4 8,9 5 3 7 4 E 1020,0 10 0,0
12.08.2018 01:00:00 9,9 8,5 8,8 5 3 7 4 ESE 1020,4 10 0,0
12.08.2018 00:00:00 10,4 8,4 9,0 5 3 7 4 ESE 1021,0 10 0,0
11.08.2018 23:00:00 11,1 8,6 9,1 0 0 7 4 N 1021,5 10 0,0
11.08.2018 22:00:00 12,9 9,1 11,0 2 1 7 4 WSW 1021,8 10 0,0
11.08.2018 21:00:00 17,1 7,5 15,8 0 0 14 8 N 1021,9 10 0,0
11.08.2018 20:00:00 19,3 7,6 19,4 15 8 29 16 W 1021,9 10 0,0
11.08.2018 19:00:00 19,7 7,7 21,1 11 6 36 19 W 1022,1 10 0,0
11.08.2018 18:00:00 20,0 7,6 21,4 18 10 36 19 W 1022,1 10 0,0
11.08.2018 17:00:00 21,3 7,6 21,8 21 11 32 18 W 1022,1 10 0,0
11.08.2018 16:00:00 21,2 7,9 22,5 18 10 36 19 W 1022,1 10 0,0
11.08.2018 15:00:00 20,8 8,5 21,4 21 11 36 19 W 1022,0 10 0,0
11.08.2018 14:00:00 20,0 6,6 19,7 18 10 40 21 W 1022,2 10 0,0
11.08.2018 13:00:00 20,8 8,8 21,3 22 12 40 21 WSW 1022,1 10 0,0
11.08.2018 12:00:00 18,9 9,2 19,4 22 12 36 19 WSW 1022,2 10 0,0
11.08.2018 11:00:00 16,6 10,4 16,7 16 9 32 18 W 1022,1 10 0,0
11.08.2018 10:00:00 16,5 11,5 16,6 15 8 29 16 WSW 1021,7 10 0,0
11.08.2018 09:00:00 14,1 12,4 13,9 11 6 18 10 SW 1021,3 10 0,0
11.08.2018 08:00:00 13,1 12,5 13,0 11 6 18 10 SW 1020,8 9 0,0
11.08.2018 07:00:00 12,0 11,8 11,1 9 5 18 10 SW 1020,2 7 0,0
11.08.2018 06:00:00 11,9 11,7 11,3 13 7 18 10 SW 1019,6 8 0,0
11.08.2018 05:00:00 11,6 11,4 10,7 11 6 14 8 SW 1019,3 10 0,0
11.08.2018 04:00:00 11,6 10,8 10,8 9 5 18 10 SW 1019,3 10 0,0
11.08.2018 03:00:00 12,0 10,7 11,5 11 6 18 10 SW 1019,0 10 0,0
11.08.2018 02:00:00 12,7 11,2 12,5 13 7 29 16 WSW 1019,4 10 4,6
11.08.2018 01:00:00 14,4 14,0 14,2 13 7 43 23 WSW 1019,3 10 3,1
11.08.2018 00:00:00 15,8 12,7 15,5 21 11 36 19 SW 1018,9 10 0,1
10.08.2018 23:00:00 16,5 11,8 15,9 9 5 29 16 WSW 1018,9 10 0,1
10.08.2018 22:00:00 19,7 7,7 18,9 18 10 40 21 SW 1018,6 10 0,0
10.08.2018 21:00:00 20,2 7,6 19,4 21 11 32 18 SSW 1018,5 10 0,0
10.08.2018 20:00:00 20,0 8,9 19,6 18 10 36 19 S 1018,4 10 0,0
10.08.2018 19:00:00 20,5 8,7 20,8 18 10 32 18 SW 1019,0 10 0,0
10.08.2018 18:00:00 21,5 8,6 20,4 22 12 47 25 WSW 1019,7 10 0,0
10.08.2018 17:00:00 21,4 9,2 21,2 24 13 43 23 SW 1020,1 10 0,0
10.08.2018 16:00:00 19,3 12,0 20,0 13 7 50 27 WSW 1020,6 10 0,8
10.08.2018 15:00:00 20,2 8,4 20,5 26 14 50 27 SW 1020,5 10 0,0
10.08.2018 14:00:00 18,8 11,6 18,8 22 12 40 21 SW 1020,5 10 0,4
10.08.2018 13:00:00 18,6 10,1 19,5 24 13 47 25 SSW 1020,6 10 0,0
10.08.2018 12:00:00 18,8 10,3 20,0 24 13 47 25 SW 1020,5 10 0,0
10.08.2018 11:00:00 17,8 12,9 19,0 24 13 36 19 SW 1020,5 10 0,0
10.08.2018 10:00:00 16,3 12,9 16,5 24 13 36 19 SSW 1020,1 10 0,0
10.08.2018 09:00:00 14,9 13,3 14,8 21 11 32 18 SSW 1019,8 10 0,0
10.08.2018 08:00:00 13,7 12,1 13,4 18 10 25 14 SSW 1019,3 10 0,0
10.08.2018 07:00:00 12,4 12,1 11,8 11 6 22 12 SSW 1019,0 8 0,0
10.08.2018 06:00:00 12,5 11,8 11,7 13 7 22 12 SSW 1018,5 10 0,0
10.08.2018 05:00:00 13,0 12,3 12,5 13 7 29 16 WSW 1018,0 10 0,0
10.08.2018 04:00:00 13,5 12,9 13,0 15 8 32 18 WSW 1017,3 10 0,1
10.08.2018 03:00:00 14,3 13,3 14,1 21 11 40 21 SW 1016,2 10 0,1
10.08.2018 02:00:00 14,4 13,4 14,0 16 9 54 29 WSW 1014,8 10 0,1
10.08.2018 01:00:00 15,3 14,6 15,2 24 13 47 25 WSW 1013,2 3,5 0,9
10.08.2018 00:00:00 15,8 15,1 15,7 24 13 43 23 WSW 1011,4 6 0,1
09.08.2018 23:00:00 17,0 15,3 16,7 22 12 47 25 WSW 1010,0 10 0,0
09.08.2018 22:00:00 17,8 15,3 17,5 35 19 68 37 WSW 1008,8 10 0,0
09.08.2018 21:00:00 18,9 15,4 18,2 37 20 65 35 SSW 1006,6 10 0,0
09.08.2018 20:00:00 20,7 18,6 20,4 28 15 50 27 S 1005,5 10 0,0
09.08.2018 19:00:00 20,7 19,5 20,8 11 6 14 8 SSE 1005,8 5 0,0
09.08.2018 18:00:00 19,6 19,0 20,1 5 3 14 8 SSE 1006,5 6 0,6
09.08.2018 17:00:00 18,6 17,4 18,8 8 4 25 14 NNE 1007,4 9 0,4
09.08.2018 16:00:00 18,0 17,0 18,2 16 9 32 18 N 1007,0 10 1,0
09.08.2018 15:00:00 17,4 17,0 17,2 21 11 32 18 NE 1008,3 6 7,0
09.08.2018 14:00:00 21,0 14,6 20,7 18 10 40 21 ENE 1009,0 10 0,0
09.08.2018 13:00:00 21,7 15,2 22,9 16 9 29 16 ENE 1010,2 10 0,6
09.08.2018 12:00:00 22,2 12,1 22,2 11 6 29 16 E 1012,0 10 0,0
09.08.2018 11:00:00 22,9 10,6 25,3 15 8 29 16 E 1012,5 10 0,0
09.08.2018 10:00:00 22,3 11,6 23,0 15 8 25 14 - 1013,1 10 0,0
09.08.2018 09:00:00 20,2 13,8 20,4 9 5 14 8 E 1013,7 10 0,0
09.08.2018 08:00:00 17,9 13,6 17,4 4 2 11 6 - 1014,1 10 0,0
09.08.2018 07:00:00 13,9 11,2 11,5 5 3 7 4 ESE 1014,5 10 0,0
09.08.2018 06:00:00 13,3 10,6 9,5 5 3 7 4 - 1014,4 10 0,0
09.08.2018 05:00:00 10,8 9,2 8,7 4 2 7 4 - 1015,0 10 0,0
09.08.2018 04:00:00 11,7 10,0 9,7 5 3 7 4 SE 1015,1 10 0,0
09.08.2018 03:00:00 11,0 9,3 9,4 5 3 7 4 ESE 1015,7 10 0,0
09.08.2018 02:00:00 11,4 10,1 9,8 4 2 7 4 SE 1015,6 10 0,0
09.08.2018 01:00:00 12,1 10,3 10,6 5 3 7 4 SE 1015,7 10 0,0

tt = Température de l'air
td = dewpoint
tt 5cm = Température de l'air 5cm
ff = Vitesse du vent
fx = gusts
dd = Direction du vent
ppp = reduced air pressure
vv = visibility
rr = Quantités de précipitations

stations d'obs. à proximité